Cheboygan, MI

3:47 AM EDT on September 18, 2019 (GMT -0400)
Cheboygan

Weather History for KSLH - August, 2019

Change the Weather History Date:

Sunday, August 25, 2019

  Actual Average (WUND) Record (WUND)
Temperature  
Mean Temperature 58 °F -  
Max Temperature 75 °F - - (-1)
Min Temperature 40 °F - - (-1)
Degree Days  
Heating Degree Days 8    
Growing Degree Days 8 (Base 50)    
Moisture  
Dew Point 52 °F    
Average Humidity 79    
Maximum Humidity 98    
Minimum Humidity 51    
Precipitation  
Precipitation 0.00 in - - ()
Sea Level Pressure  
Sea Level Pressure 30.21 in    
Wind  
Wind Speed 4 mph (East)    
Max Wind Speed 15 mph    
Max Gust Speed 22 mph    
Visibility 10 miles    
Events      
Averages and records for this station are not official NWS values.
T = Trace of Precipitation, MM = Missing Value Source: NWS Daily Summary

Daily Weather History Graph

Daily Weather History Graph

Search for Another Location

Airport or City:

Astronomy

Aug. 25, 2019 Rise Set
Actual Time 6:50 AM EDT 8:29 PM EDT
Civil Twilight 6:19 AM EDT 9:00 PM EDT
Nautical Twilight 5:40 AM EDT 9:38 PM EDT
Astronomical Twilight 4:59 AM EDT 10:19 PM EDT
Moon 1:15 AM EDT (8/25) 4:59 PM EDT (8/25)
Length of Visible Light 14h 41m
Length of Day
13h 38m
Waning Crescent, 29% of the Moon is Illuminated
Aug 25
Waning Crescent
Aug 30
New
Sep 5
First Quarter
Sep 14
Full
Sep 21
Last Quarter

Hourly Weather History & Observations

Time (EDT) Temp. Windchill Dew Point Humidity Pressure Visibility Wind Dir Wind Speed Gust Speed Precip Events Conditions
12:16 AM 57.0 °F - 48.6 °F 73% 30.28 in 10.0 mi South 3.5 mph - N/A   Clear
12:35 AM 50.5 °F - 46.0 °F 85% 30.28 in 10.0 mi Calm Calm - N/A   Clear
12:55 AM 48.4 °F - 45.9 °F 91% 30.28 in 10.0 mi Calm Calm - N/A   Clear
12:56 AM 48.4 °F - 46.2 °F 92% 30.27 in 10.0 mi Calm Calm - N/A   Clear
1:19 AM 47.3 °F - 45.0 °F 92% 30.27 in 10.0 mi Calm Calm - N/A   Clear
1:37 AM 46.2 °F - 44.8 °F 95% 30.26 in 10.0 mi Calm Calm - N/A   Clear
1:55 AM 46.8 °F - 45.5 °F 95% 30.26 in 10.0 mi Calm Calm - N/A   Clear
2:15 AM 46.4 °F - 45.3 °F 96% 30.26 in 10.0 mi Calm Calm - N/A   Clear
2:16 AM 46.4 °F - 45.1 °F 95% 30.26 in 10.0 mi Calm Calm - N/A   Clear
2:35 AM 44.6 °F - 43.0 °F 94% 30.26 in 10.0 mi Calm Calm - N/A   Clear
2:40 AM 43.5 °F - 41.5 °F 93% 30.26 in 10.0 mi Calm Calm - N/A   Clear
2:58 AM 44.2 °F - 42.8 °F 95% 30.26 in 10.0 mi Calm Calm - N/A   Clear
3:16 AM 43.2 °F - 41.5 °F 94% 30.26 in 10.0 mi Calm Calm - N/A   Clear
3:35 AM 42.8 °F - 41.4 °F 95% 30.26 in 10.0 mi Calm Calm - N/A   Clear
3:55 AM 44.2 °F - 42.8 °F 95% 30.26 in 10.0 mi Calm Calm - N/A   Clear
3:56 AM 44.1 °F - 42.8 °F 95% 30.26 in 10.0 mi Calm Calm - N/A   Clear
4:19 AM 42.8 °F - 41.9 °F 97% 30.26 in 10.0 mi Calm Calm - N/A   Clear
4:37 AM 42.1 °F 40.2 °F 41.0 °F 96% 30.26 in 10.0 mi South 3.5 mph - N/A   Clear
4:55 AM 40.3 °F - 39.6 °F 97% 30.26 in 10.0 mi Calm Calm - N/A   Clear
5:15 AM 43.2 °F - 42.4 °F 97% 30.26 in 10.0 mi Calm Calm - N/A   Clear
5:16 AM 43.0 °F - 42.1 °F 97% 30.26 in 10.0 mi Calm Calm - N/A   Clear
5:35 AM 42.6 °F - 41.5 °F 96% 30.27 in 10.0 mi Calm Calm - N/A   Clear
5:40 AM 42.4 °F - 41.4 °F 96% 30.26 in 10.0 mi Calm Calm - N/A   Clear
5:58 AM 43.0 °F - 42.1 °F 97% 30.26 in 10.0 mi Calm Calm - N/A   Clear
6:16 AM 43.2 °F 41.5 °F 42.4 °F 97% 30.28 in 10.0 mi SE 3.5 mph - N/A   Clear
6:35 AM 42.4 °F - 41.7 °F 97% 30.28 in 10.0 mi Calm Calm - N/A   Clear
6:36 AM 42.3 °F - 41.5 °F 97% 30.28 in 10.0 mi Calm Calm - N/A   Clear
6:55 AM 42.1 °F - 40.8 °F 95% 30.28 in 10.0 mi Calm Calm - N/A   Clear
6:56 AM 42.1 °F - 41.0 °F 96% 30.28 in 10.0 mi Calm Calm - N/A   Clear
7:19 AM 43.3 °F - 42.6 °F 97% 30.28 in 10.0 mi Calm Calm - N/A   Clear
7:37 AM 45.1 °F - 44.6 °F 98% 30.27 in 10.0 mi Calm Calm - N/A   Clear
7:55 AM 47.8 °F - 46.6 °F 95% 30.28 in 10.0 mi Calm Calm - N/A   Clear
7:56 AM 48.0 °F - 46.8 °F 95% 30.28 in 10.0 mi Calm Calm - N/A   Clear
8:15 AM 51.3 °F - 49.3 °F 93% 30.28 in 10.0 mi Calm Calm - N/A   Clear
8:16 AM 51.4 °F - 49.5 °F 93% 30.28 in 10.0 mi Calm Calm - N/A   Clear
8:35 AM 55.2 °F - 51.3 °F 87% 30.28 in 10.0 mi Calm Calm - N/A   Clear
8:58 AM 57.9 °F - 52.9 °F 83% 30.28 in 10.0 mi Calm Calm - N/A   Clear
9:16 AM 59.7 °F - 53.6 °F 80% 30.28 in 10.0 mi SE 4.6 mph - N/A   Clear
9:35 AM 61.3 °F - 54.1 °F 77% 30.28 in 10.0 mi SSE 3.5 mph - N/A   Clear
9:36 AM 61.3 °F - 54.1 °F 77% 30.28 in 10.0 mi SSE 3.5 mph - N/A   Clear
9:55 AM 63.5 °F - 55.2 °F 74% 30.28 in 10.0 mi SE 4.6 mph - N/A   Clear
9:56 AM 63.5 °F - 55.2 °F 74% 30.28 in 10.0 mi SE 6.9 mph - N/A   Clear
10:19 AM 65.1 °F - 55.4 °F 71% 30.28 in 10.0 mi SSE 4.6 mph - N/A   Clear
10:37 AM 66.6 °F - 55.0 °F 66% 30.28 in 10.0 mi SE 5.8 mph - N/A   Clear
10:55 AM 68.4 °F - 55.4 °F 63% 30.26 in 10.0 mi SSE 3.5 mph - N/A   Clear
11:15 AM 69.8 °F - 54.5 °F 58% 30.26 in 10.0 mi East 5.8 mph - N/A   Clear
11:16 AM 69.8 °F - 54.3 °F 58% 30.26 in 10.0 mi ESE 4.6 mph - N/A   Clear
11:35 AM 68.5 °F - 57.2 °F 67% 30.26 in 10.0 mi NE 9.2 mph - N/A   Clear
11:40 AM 68.0 °F - 57.0 °F 68% 30.26 in 10.0 mi NE 9.2 mph - N/A   Clear
11:58 AM 68.9 °F - 58.8 °F 70% 30.25 in 10.0 mi ENE 9.2 mph - N/A   Clear
12:16 PM 70.2 °F - 59.9 °F 70% 30.25 in 10.0 mi ENE 11.5 mph - N/A   Scattered Clouds
12:35 PM 67.8 °F - 59.7 °F 75% 30.23 in 10.0 mi ENE 10.4 mph - N/A   Scattered Clouds
12:36 PM 67.6 °F - 59.7 °F 76% 30.23 in 10.0 mi ENE 11.5 mph 16.1 mph N/A   Scattered Clouds
12:55 PM 68.2 °F - 61.2 °F 78% 30.23 in 10.0 mi NE 11.5 mph - N/A   Scattered Clouds
1:00 PM 68.5 °F - 61.7 °F 79% 30.23 in 10.0 mi NE 15.0 mph - N/A   Mostly Cloudy
1:18 PM 68.2 °F - 61.9 °F 80% 30.22 in 10.0 mi NE 12.7 mph 18.4 mph N/A   Scattered Clouds
1:36 PM 69.3 °F - 61.7 °F 77% 30.21 in 10.0 mi ENE 9.2 mph - N/A   Mostly Cloudy
1:55 PM 68.0 °F - 62.1 °F 81% 30.21 in 10.0 mi ENE 12.7 mph 17.3 mph N/A   Overcast
1:56 PM 68.2 °F - 62.1 °F 81% 30.21 in 10.0 mi ENE 11.5 mph 17.3 mph N/A   Overcast
2:15 PM 69.4 °F - 62.6 °F 79% 30.20 in 10.0 mi ENE 13.8 mph - N/A   Mostly Cloudy
2:16 PM 69.4 °F - 62.4 °F 78% 30.20 in 10.0 mi NE 13.8 mph - N/A   Mostly Cloudy
2:39 PM 71.6 °F - 62.1 °F 72% 30.20 in 10.0 mi ENE 10.4 mph 16.1 mph N/A   Mostly Cloudy
2:57 PM 71.4 °F - 62.6 °F 74% 30.19 in 10.0 mi ENE 12.7 mph - N/A   Mostly Cloudy
3:15 PM 71.2 °F - 60.4 °F 69% 30.18 in 10.0 mi ENE 11.5 mph 18.4 mph N/A   Overcast
3:16 PM 71.1 °F - 60.4 °F 69% 30.18 in 10.0 mi ENE 10.4 mph 17.3 mph N/A   Overcast
3:35 PM 71.8 °F - 60.3 °F 67% 30.18 in 10.0 mi ENE 13.8 mph 19.6 mph N/A   Mostly Cloudy
3:36 PM 71.6 °F - 60.4 °F 68% 30.18 in 10.0 mi ENE 12.7 mph 19.6 mph N/A   Mostly Cloudy
3:55 PM 73.4 °F - 60.6 °F 64% 30.17 in 10.0 mi ENE 15.0 mph - N/A   Scattered Clouds
4:18 PM 73.6 °F - 60.1 °F 63% 30.16 in 10.0 mi ENE 13.8 mph 21.9 mph N/A   Scattered Clouds
4:36 PM 73.4 °F - 60.1 °F 63% 30.15 in 10.0 mi ENE 12.7 mph - N/A   Scattered Clouds
4:55 PM 73.9 °F - 58.8 °F 59% 30.14 in 10.0 mi ENE 12.7 mph - N/A   Clear
4:56 PM 74.1 °F - 58.8 °F 59% 30.14 in 10.0 mi East 11.5 mph - N/A   Scattered Clouds
5:15 PM 75.7 °F - 57.0 °F 52% 30.13 in 10.0 mi East 15.0 mph 19.6 mph N/A   Clear
5:16 PM 75.6 °F - 57.0 °F 52% 30.13 in 10.0 mi East 12.7 mph 19.6 mph N/A   Clear
5:39 PM 75.2 °F - 56.3 °F 52% 30.13 in 10.0 mi East 11.5 mph - N/A   Scattered Clouds
5:57 PM 75.0 °F - 55.8 °F 51% 30.13 in 10.0 mi East 15.0 mph 19.6 mph N/A   Scattered Clouds
6:15 PM 74.3 °F - 55.6 °F 52% 30.13 in 10.0 mi East 15.0 mph 19.6 mph N/A   Clear
6:16 PM 74.3 °F - 55.4 °F 52% 30.13 in 10.0 mi East 12.7 mph 17.3 mph N/A   Clear
6:35 PM 73.0 °F - 55.2 °F 53% 30.12 in 10.0 mi East 13.8 mph 20.7 mph N/A   Clear
6:36 PM 73.0 °F - 55.2 °F 53% 30.12 in 10.0 mi East 13.8 mph 20.7 mph N/A   Clear
6:55 PM 70.7 °F - 54.9 °F 57% 30.12 in 10.0 mi East 12.7 mph 18.4 mph N/A   Clear
7:18 PM 69.6 °F - 54.7 °F 59% 30.12 in 10.0 mi East 10.4 mph 16.1 mph N/A   Clear
7:36 PM 68.5 °F - 54.7 °F 61% 30.12 in 10.0 mi East 10.4 mph - N/A   Clear
7:55 PM 67.1 °F - 54.7 °F 64% 30.11 in 10.0 mi ESE 9.2 mph - N/A   Clear
7:56 PM 67.1 °F - 54.9 °F 65% 30.11 in 10.0 mi East 9.2 mph - N/A   Clear
8:15 PM 65.7 °F - 54.9 °F 68% 30.11 in 10.0 mi East 6.9 mph - N/A   Clear
8:16 PM 65.7 °F - 54.9 °F 68% 30.11 in 10.0 mi East 8.1 mph - N/A   Clear
8:39 PM 62.6 °F - 54.9 °F 76% 30.11 in 10.0 mi ESE 5.8 mph - N/A   Clear
8:57 PM 61.3 °F - 54.7 °F 79% 30.11 in 10.0 mi ESE 5.8 mph - N/A   Clear
9:15 PM 62.6 °F - 54.1 °F 74% 30.11 in 10.0 mi ESE 6.9 mph - N/A   Clear
9:16 PM 62.6 °F - 54.0 °F 73% 30.11 in 10.0 mi ESE 6.9 mph - N/A   Clear
9:35 PM 61.3 °F - 53.2 °F 75% 30.12 in 10.0 mi ESE 5.8 mph - N/A   Clear
9:36 PM 61.2 °F - 53.1 °F 75% 30.12 in 10.0 mi ESE 5.8 mph - N/A   Clear
10:00 PM 59.9 °F - 52.9 °F 78% 30.11 in 10.0 mi ESE 6.9 mph - N/A   Clear
10:18 PM 61.5 °F - 53.8 °F 76% 30.12 in 10.0 mi SE 6.9 mph - N/A   Clear
10:36 PM 60.8 °F - 54.0 °F 78% 30.12 in 10.0 mi SE 6.9 mph - N/A   Clear
10:55 PM 59.9 °F - 54.1 °F 81% 30.12 in 10.0 mi SE 5.8 mph - N/A   Clear
10:56 PM 59.7 °F - 54.0 °F 81% 30.12 in 10.0 mi SE 5.8 mph - N/A   Clear
11:15 PM 59.0 °F - 54.5 °F 85% 30.12 in 10.0 mi SE 4.6 mph - N/A   Clear
11:16 PM 59.0 °F - 54.5 °F 85% 30.12 in 10.0 mi SE 4.6 mph - N/A   Clear
11:39 PM 58.8 °F - 55.2 °F 88% 30.12 in 10.0 mi SE 3.5 mph - N/A   Clear
11:57 PM 58.3 °F - 55.6 °F 91% 30.12 in 10.0 mi SE 3.5 mph - N/A   Clear